Powrót do katalogu

FENGYUN 1C DEB

AktywnySSO
NORAD 31381·DEBRIS·🇨🇳 China

Wystrzelony May 10, 1999 z Taiyuan Satellite Launch Center

Loading…

Następne Przeloty (najbliższe 24 godziny)

TLE

Starzejące sięSource: Space-Track

Epoka: Sep 6, 2026, 11:54 UTC

1 31381U 99025BSM 26249.49630712  .00000354  00000-0  10828-3 0  9990
2 31381  98.4774 334.5184 0194730 312.3501  46.1334 14.37924240 12442

Śledź FENGYUN 1C DEB w czasie rzeczywistym z AllMySat

Download on the App Store